Location: Woodstock
(35.2731°N, 89.9823°W)
Time: 12:41:58
(UTC+00:00)

Envisat - Visible Passes

Search period start: 11 October 2024 00:00
Search period end: 21 October 2024 00:00
Orbit: 762 x 764 km, 98.3° (Epoch: 10 October)

Date Brightness Start Highest point End Pass type
(mag) Time Alt. Az. Time Alt. Az. Time Alt. Az.
11 Oct 5.3 09:28:16 10° N 09:29:00 14° N 09:29:00 14° N visible
12 Oct 5.8 08:50:46 10° NNE 08:50:56 11° NNE 08:50:56 11° NNE visible
13 Oct 5.3 09:52:38 10° N 09:53:00 12° NNW 09:53:00 12° NNW visible
14 Oct 5.6 09:14:41 10° N 09:14:56 11° N 09:14:56 11° N visible
16 Oct 5.5 09:38:52 10° N 09:38:55 10° N 09:38:55 10° N visible
